Dewpoint
49 48 48 50 49 47 44 44 45 46 49 48 49 48 49 49 49 45 44 44 45 46 46 44 39 40 42 39 45 46 37 33 34 35 39 37 39 38 35 33 44 53 55 61 64
49 48 48 49 49 48 46 45 44 46 47 49 48 49 49 49 46 42 42 46 47 43 46 42 36 37 38 39 40 40 36 34 35 37 37 39 42 41 42 44 52 56 61 63 64
47 48 48 48 48 47 47 44 47 46 47 48 49 49 49 49 42 43 46 43 42 42 43 42 38 37 38 39 39 39 38 36 35 38 38 39 46 48 47 45 48 53 58 62 61
48 48 48 48 47 46 45 45 48 46 46 48 50 49 48 47 32 42 39 39 38 40 41 41 39 36 38 36 36 36 37 40 39 37 37 42 47 44 47 46 48 48 58 60 62
48 48 48 47 46 46 46 46 49 47 48 49 49 48 47 41 37 39 39 36 34 35 35 37 37 35 34 37 37 33 36 38 38 39 42 44 42 44 45 46 47 46 54 60 61
48 48 47 47 46 46 47 47 48 47 47 47 47 48 44 34 36 36 35 34 33 34 35 35 39 40 37 36 36 37 36 35 37 41 39 38 41 43 43 46 46 46 48 56 59
48 47 47 46 46 47 48 48 47 47 48 49 47 46 40 36 36 35 35 34 34 34 36 39 42 39 38 34 38 37 35 37 39 40 39 40 40 41 42 46 46 46 46 53 57
47 47 47 45 47 48 48 47 44 48 46 48 47 45 36 37 34 34 37 35 36 38 39 38 38 39 37 37 34 36 35 31 36 39 38 41 31 42 46 47 46 46 46 49 54
47 46 47 46 48 49 47 45 44 46 47 47 45 42 34 35 33 36 38 37 35 39 39 38 38 33 36 32 30 33 28 31 30 37 37 39 34 38 45 47 44 45 44 44 46
47 45 46 46 49 47 46 43 43 44 44 45 37 35 34 30 34 38 38 38 35 36 36 36 35 31 33 30 20 27 29 31 29 32 37 37 35 35 42 45 45 45 43 43 42
45 45 44 46 48 46 44 40 36 34 34 31 31 31 28 34 36 37 37 36 36 33 29 32 27 24 23 31 29 31 30 30 30 33 34 36 35 33 40 41 42 44 43 44 41
46 45 47 48 47 46 44 35 36 36 31 27 28 29 29 33 31 33 37 35 31 28 29 27 22 25 29 28 30 31 28 27 29 36 35 35 33 34 39 39 41 42 39 42 39
45 46 47 48 47 44 38 37 40 37 32 30 31 30 33 33 30 32 35 34 30 28 26 24 23 29 27 28 29 30 28 27 30 34 36 35 31 32 40 41 40 37 34 34 32
46 46 48 48 44 40 39 41 41 38 27 29 31 33 33 31 30 31 36 33 30 25 25 26 28 26 26 26 29 26 30 27 29 31 26 34 25 31 36 39 38 37 34 35 34
47 46 48 46 43 40 42 41 41 37 19 30 32 36 34 30 29 30 34 33 29 28 29 20 24 25 25 28 27 27 31 29 30 32 31 31 26 25 34 33 32 32 32 34 34
46 46 48 45 43 42 42 42 39 24 19 27 33 33 32 32 29 30 31 33 30 26 25 23 27 28 29 32 34 33 33 33 32 31 23 29 25 20 25 27 30 31 31 33 33
46 46 47 43 41 43 42 40 26 20 30 28 31 33 33 30 30 28 28 28 24 22 21 22 24 32 33 31 34 34 29 23 22 22 19 27 24 21 23 27 29 31 30 32 33
45 47 43 43 44 43 42 32 18 28 29 32 32 31 29 31 32 31 28 26 28 25 21 21 18 28 32 32 31 31 28 23 17 19 20 27 21 22 24 25 29 29 31 32 32
45 45 44 44 45 44 37 24 26 28 30 30 31 28 28 31 31 29 28 27 30 23 18 18 19 31 33 34 34 30 27 31 22 26 21 26 24 27 25 23 24 27 30 30 31
42 42 37 44 44 41 31 25 27 30 29 34 27 29 28 29 28 27 27 30 28 27 24 21 19 23 26 32 33 32 33 21 23 18 17 23 21 18 21 22 24 25 26 30 31
41 38 37 44 43 37 25 26 26 28 30 32 29 27 29 29 31 28 26 28 30 24 22 20 25 17 26 25 27 29 26 29 28 26 22 20 20 23 25 24 23 25 27 29 31
40 34 38 44 32 30 27 27 28 27 31 32 33 31 29 29 28 26 26 29 30 27 19 20 24 18 22 26 32 31 30 30 24 24 27 24 21 26 27 27 25 25 28 30 31
35 35 37 41 30 28 28 26 28 26 27 27 32 28 27 32 29 29 26 30 31 26 23 24 21 17 16 21 28 27 29 31 31 30 26 23 21 27 27 31 31 31 35 35 34
30 24 32 35 31 28 26 18 23 26 28 31 31 27 27 29 30 29 27 29 31 30 28 24 20 19 17 22 24 23 24 28 28 26 27 26 24 28 31 33 34 35 36 36 36
32 30 28 24 26 24 25 18 17 23 26 28 30 25 26 29 31 30 31 28 29 31 28 28 19 20 23 25 23 23 23 25 25 30 26 26 25 28 32 35 35 36 36 36 35
24 22 26 23 21 20 24 17 16 17 21 26 25 25 26 30 29 28 30 31 30 29 27 29 12 17 22 24 23 21 21 22 27 32 30 27 25 28 32 36 35 35 35 35 36
30 30 22 22 19 19 18 17 18 18 20 23 22 27 25 29 28 29 30 33 34 29 25 26 25 25 25 28 21 20 26 21 29 33 28 27 27 28 28 32 35 36 36 36 36
Wind_Speed
17 16 17 14 13 15 15 15 14 14 15 10 9 10 12 11 11 10 6 7 4 10 16 9 10 12 13 4 1 1 10 20 19 26 13 36 9 15 15 7 4 2 8 21 22
18 18 17 17 15 14 14 15 13 14 14 11 10 10 11 10 9 11 6 2 8 12 13 7 9 12 6 6 3 7 13 21 9 17 29 27 2 20 11 9 9 13 19 22 22
19 17 18 18 17 17 14 15 13 13 13 12 11 9 11 5 5 0 3 4 8 8 9 7 10 9 5 4 6 6 16 12 19 11 20 14 8 9 9 2 9 18 19 19 22
18 18 19 18 18 16 17 16 14 12 12 12 6 5 6 2 3 1 3 7 9 7 8 10 8 6 3 6 3 16 12 18 11 11 16 8 4 8 1 11 17 19 21 18 21
18 18 17 17 18 18 16 16 15 10 10 7 2 2 1 3 5 5 3 10 12 6 9 9 10 9 12 5 8 15 15 17 21 18 3 6 5 1 14 21 22 23 17 24 23
17 18 18 18 18 17 15 15 11 10 10 8 5 2 1 3 3 6 4 7 8 9 11 4 3 8 3 6 7 11 18 19 18 16 11 18 10 4 14 6 20 17 19 9 21
18 18 18 18 18 16 14 13 10 9 7 4 6 5 4 9 4 6 5 4 2 5 6 6 8 2 2 3 3 9 13 3 14 16 9 8 18 24 26 9 15 21 24 8 15
17 17 18 18 18 15 11 10 8 9 3 5 7 4 4 1 4 5 9 9 5 3 4 4 3 4 2 3 4 7 5 9 11 18 8 11 16 20 14 9 17 22 16 16 14
17 17 17 17 17 11 10 9 5 6 4 7 5 2 4 1 1 2 5 7 4 6 5 3 2 3 3 2 2 8 9 12 5 12 6 10 3 15 17 16 28 15 22 19 15
16 17 16 15 15 11 11 7 4 4 4 7 4 2 4 1 3 1 2 6 3 3 2 1 1 1 3 5 6 6 10 8 14 10 13 13 12 1 26 26 22 15 25 25 13
15 17 16 13 11 11 8 3 1 2 2 1 2 5 1 2 3 4 3 0 2 3 2 0 1 6 12 11 11 8 6 3 10 5 13 28 15 4 20 22 15 19 22 28 19
15 15 14 11 10 10 6 1 2 2 1 1 3 4 2 2 3 5 3 2 6 6 4 1 8 12 13 17 10 2 4 4 8 5 4 11 14 14 13 18 24 27 28 25 27
13 14 11 9 9 7 4 2 2 2 2 2 1 3 2 2 4 1 7 3 5 9 8 8 9 8 4 7 10 5 6 3 2 6 2 7 11 16 4 5 7 17 22 22 15
12 13 8 5 3 2 1 2 1 2 3 2 2 0 2 2 3 2 7 1 3 5 4 5 3 4 4 5 5 4 12 6 5 2 4 6 8 18 17 15 16 25 14 11 8
11 11 5 3 5 1 3 4 1 2 3 1 1 1 3 3 7 1 3 1 5 8 1 4 1 1 4 5 7 5 3 8 2 4 3 8 3 8 21 18 24 24 19 13 9
10 7 4 3 1 3 3 2 1 2 2 1 2 3 6 4 3 1 2 2 5 5 7 8 3 1 1 7 5 4 5 1 2 6 5 9 3 3 23 31 27 22 17 15 10
9 4 3 4 3 6 3 1 2 3 3 5 2 1 3 4 3 3 2 2 1 3 4 4 3 5 3 3 3 5 8 3 5 7 5 15 8 10 17 16 21 23 22 19 11
5 4 3 2 5 4 1 1 4 3 2 2 3 9 4 4 2 3 2 2 4 2 3 3 2 5 2 2 4 4 3 3 1 6 6 10 10 7 14 16 21 22 27 19 14
5 2 3 4 5 2 2 5 2 2 1 5 7 3 3 2 1 2 2 4 2 2 2 7 5 6 2 5 1 2 4 3 2 4 4 4 4 9 8 12 22 25 21 25 22
6 5 4 6 4 3 1 3 2 4 2 2 4 4 5 4 0 2 2 4 2 4 2 3 3 6 3 2 7 4 4 1 4 5 4 4 2 6 7 6 9 19 20 23 25
2 3 3 6 3 1 4 3 2 1 3 1 2 5 6 4 5 4 3 2 3 4 4 5 2 5 3 5 2 4 2 3 4 2 3 5 4 5 6 6 13 11 11 12 22
3 3 6 6 2 1 3 5 3 1 2 2 2 6 5 7 6 3 3 1 4 7 4 3 3 4 4 2 3 3 1 2 3 1 3 3 0 4 4 4 5 7 6 8 9
6 5 2 2 3 3 4 5 2 2 1 2 4 7 6 4 3 4 4 3 7 6 4 7 5 3 4 2 1 2 1 1 3 3 8 3 1 3 7 11 10 18 15 15 15
5 5 2 3 3 2 4 3 4 3 2 1 1 3 3 4 8 3 3 1 6 5 7 5 2 0 3 5 1 2 3 4 4 4 8 7 6 7 6 9 9 10 11 12 14
3 4 5 6 5 5 4 3 3 3 1 1 2 4 4 3 2 3 2 2 1 6 5 3 2 3 9 10 3 2 2 5 2 1 4 8 10 7 3 5 6 8 8 8 9
7 5 2 5 7 8 5 4 4 4 1 5 3 4 3 2 2 1 4 0 2 4 2 4 3 5 6 5 6 4 5 2 7 0 5 9 2 3 5 9 10 9 9 8 7
2 2 6 7 6 6 6 6 5 5 2 5 3 1 1 2 4 7 4 4 2 1 3 2 4 6 3 5 4 4 5 6 7 1 8 4 4 8 11 9 4 7 10 10 10
Wind_Direction
332 334 331 339 328 328 339 329 326 322 327 326 323 319 319 311 310 294 261 235 267 320 327 295 307 297 303 250 232 344 237 246 232 208 277 254 342 277 196 182 61 101 146 150 130
334 333 333 333 327 325 327 328 323 322 320 324 311 322 317 303 301 270 266 287 316 337 330 233 275 285 277 307 225 200 229 241 187 224 216 257 263 261 6 120 98 105 115 131 131
331 331 329 330 333 329 326 327 323 312 312 314 310 308 322 321 299 142 35 322 330 340 318 278 274 296 264 249 231 233 253 266 275 237 226 275 321 347 8 251 121 140 135 147 156
325 332 329 333 328 323 325 319 314 312 303 317 322 291 321 280 290 206 327 343 331 301 288 259 261 267 256 239 266 252 262 273 286 313 272 264 342 350 195 235 339 334 154 154 160
328 329 329 328 324 321 322 314 315 313 312 311 300 311 292 235 263 205 345 341 320 323 305 277 249 236 234 271 331 259 246 252 286 293 156 166 253 336 280 271 311 322 250 160 164
326 326 329 328 324 323 318 313 325 325 307 282 253 154 260 241 320 95 28 326 352 348 326 328 188 290 214 266 287 323 300 247 261 295 264 175 210 224 245 307 287 298 292 190 166
324 329 330 327 324 322 320 325 331 320 317 238 195 182 242 243 1 7 316 280 355 330 336 29 121 128 115 272 332 288 299 256 228 275 293 171 168 200 241 294 279 300 326 218 191
324 332 329 329 322 325 325 317 321 326 17 133 159 195 247 82 325 331 360 314 174 341 353 54 354 98 211 298 318 285 247 213 185 246 258 191 226 183 204 229 275 301 307 253 193
326 333 327 327 327 333 316 313 292 327 90 138 143 190 288 162 308 73 39 340 111 68 3 1 336 229 100 232 337 253 211 225 211 201 253 207 282 203 162 194 252 289 298 289 203
327 326 326 326 328 324 310 307 286 305 251 216 256 215 254 58 61 13 131 335 312 148 243 230 353 286 197 192 220 256 190 201 198 211 206 259 238 133 171 166 221 271 288 300 212
328 324 325 323 325 314 326 304 62 31 259 313 17 293 357 113 158 220 358 308 250 224 245 139 253 259 260 231 260 304 351 349 206 159 188 221 212 249 201 173 177 242 266 284 259
325 322 325 322 323 316 301 120 100 164 65 179 283 285 234 76 298 193 143 297 190 243 174 253 258 251 273 271 229 175 302 356 290 133 150 288 220 204 159 177 177 202 223 241 240
319 321 323 319 323 313 106 95 32 45 131 196 221 321 41 10 282 213 155 291 261 265 236 236 261 293 262 284 195 214 210 234 293 121 120 261 216 215 145 300 253 241 216 215 205
316 316 316 320 324 257 81 216 311 73 111 188 146 44 257 252 283 54 176 263 288 275 256 243 259 314 308 269 209 209 214 217 248 137 205 155 203 195 181 193 251 258 252 260 266
311 310 307 226 295 180 196 233 246 71 16 297 80 74 322 267 311 60 64 224 268 312 287 272 292 311 254 256 219 251 195 191 224 220 86 193 166 210 175 196 216 229 237 247 264
306 301 301 260 197 164 202 281 90 56 12 9 60 7 341 263 264 230 206 200 269 299 289 260 139 194 276 298 284 340 117 57 312 144 217 229 160 297 175 195 204 206 231 229 239
300 271 199 283 217 180 194 38 79 56 138 331 304 283 297 272 239 181 329 249 318 318 336 324 173 36 343 227 274 207 144 174 195 153 209 176 187 230 212 196 198 198 222 217 221
274 214 256 101 152 146 89 89 79 62 38 342 326 314 285 322 266 156 341 287 256 180 318 322 13 307 248 224 155 128 138 167 127 137 130 152 216 249 242 232 211 195 207 214 212
165 214 240 189 161 150 91 65 126 94 339 324 323 314 280 225 263 99 227 354 20 193 32 0 321 288 148 114 115 129 100 210 77 347 92 200 294 298 269 211 227 203 192 207 217
161 177 200 172 171 199 95 101 94 125 250 174 358 257 318 339 310 188 82 6 297 270 244 314 309 324 90 98 64 103 157 40 11 115 158 203 261 259 190 152 132 184 196 201 208
188 189 208 167 110 96 107 98 158 183 257 239 336 302 312 14 353 38 41 315 267 299 298 331 317 330 43 27 15 47 66 99 115 81 15 128 239 332 4 213 174 162 164 183 199
187 189 187 135 110 209 156 172 127 206 232 277 234 301 332 334 34 79 69 30 272 299 333 313 331 21 24 44 122 125 49 18 61 26 267 242 130 318 11 13 176 160 124 114 112
174 138 196 145 147 194 169 139 126 158 23 329 20 354 338 315 65 55 66 324 320 335 21 336 14 352 349 343 101 87 217 23 84 64 241 108 32 22 46 81 99 119 108 109 100
142 141 152 196 214 148 136 115 136 134 152 75 325 5 345 26 49 60 88 305 350 40 348 17 330 162 321 277 57 115 195 202 104 292 346 23 33 9 61 93 98 97 105 104 103
164 193 176 172 208 146 122 124 129 126 167 184 217 47 348 4 113 49 30 322 359 6 10 43 299 320 303 295 280 10 204 213 145 172 59 327 335 26 54 114 117 116 107 107 113
159 156 108 128 131 142 159 166 138 107 158 166 205 350 302 64 64 4 6 226 312 20 49 18 301 323 306 265 240 270 309 266 134 252 303 308 343 25 61 100 100 117 125 127 124
178 93 130 156 159 151 178 158 149 131 154 77 105 290 216 129 311 284 289 242 214 278 209 69 3 345 326 355 204 298 289 216 117 250 315 14 16 65 58 66 114 141 141 142 146